Regional Weather Roundup
Issued by NWS

Home | Current Version | Previous Version | Graphics & Text | Print | Product List | Glossary On
Versions: 1 2 3 4 5 6 7 8 9 10 11 12 13 14 15 16 17 18 19 20 21 22 23 24 25 26 27 28 29 30 31 32 33 34 35 36 37 38 39 40 41 42 43 44 45 46 47 48 49 50
000
ASUS43 KLMK 240010
RWRKY
KENTUCKY REGIONAL WEATHER ROUNDUP
NATIONAL WEATHER SERVICE LOUISVILLE KY
800 PM EDT TUE SEP 23 2014

NOTE "FAIR" INDICATES FEW OR NO CLOUDS BELOW 12,000 FEET
WITH NO SIGNIFICANT WEATHER AND/OR OBSTRUCTIONS TO VISIBILITY.

KYZ001>023-026-027-061>063-070>075-240100-
WESTERN AND SOUTH CENTRAL KENTUCKY

CITY           SKY/WX    TMP DP  RH WIND       PRES   REMARKS
PADUCAH        CLEAR     64  50  60 E6        30.20S
HENDERSON      CLEAR     64  45  48 NE5       30.23S
OWENSBORO      CLEAR     69  47  45 NE6       30.23S
HOPKINSVILLE   CLEAR     65  45  48 NE6       30.21R
BOWLING GREEN  CLEAR     67  46  47 NE3       30.22S
GLASGOW        CLEAR     65  47  52 CALM      30.23S
$$

KYZ024-025-028>034-038-045-046-053-240100-
NORTH CENTRAL KENTUCKY

CITY           SKY/WX    TMP DP  RH WIND       PRES   REMARKS
LOUISVILLE/SDF PTCLDY    68  46  45 NE6       30.25S
LOUISVILLE/LOU CLEAR     69  45  41 NE3       30.26S
FORT KNOX      CLEAR     64  49  58 NE6       30.24S
$$

KYZ035>037-039>044-047>052-055>060-089>105-240100-
NORTHEAST KENTUCKY

CITY           SKY/WX    TMP DP  RH WIND       PRES   REMARKS
LEXINGTON      CLEAR     63  45  51 NE7       30.28R
COVINGTON      CLEAR     67  43  41 N6        30.28S
FRANKFORT      CLEAR     63  43  48 E5        30.26S
$$

KYZ054-064>069-076>088-106>120-240100-
SOUTHEAST KENTUCKY

CITY           SKY/WX    TMP DP  RH WIND       PRES   REMARKS
JACKSON        CLEAR     61  49  64 CALM      30.28S
LONDON         CLEAR     64  50  60 NE6       30.27S
SOMERSET       CLEAR     63  48  59 NE5       30.27R
MIDDLESBORO    CLEAR     62  55  78 W3        30.25R
MONTICELLO     CLEAR     59  52  77 CALM      30.26S
$$



USA.gov is the U.S. government's official web portal to all federal, state and local government web resources and services.